Location: Newark
(46.2144°N, 13.6425°E)
Time: 06:44:40
(UTC+00:00)

ISS - Visible Passes

Search period start: 22 August 2019 00:00
Search period end: 01 September 2019 00:00
Orbit: 410 x 421 km, 51.6° (Epoch: 22 August)

Date Brightness Start Highest point End Pass type
(mag) Time Alt. Az. Time Alt. Az. Time Alt. Az.
26 Aug -1.0 03:39:01 10° SSE 03:40:44 13° SE 03:42:27 10° ESE visible
28 Aug -2.3 03:36:33 10° SSW 03:39:32 31° SE 03:42:33 10° ENE visible
29 Aug -1.7 02:49:12 14° S 02:50:54 20° SE 02:53:24 10° E visible
30 Aug -1.1 02:02:30 12° SE 02:02:30 12° SE 02:03:41 10° ESE visible
30 Aug -3.7 03:35:23 11° SW 03:38:30 74° SSE 03:41:50 10° ENE visible
31 Aug -3.1 02:48:37 32° SSW 02:49:43 46° SE 02:52:56 10° ENE visible
